Content
SEND FEEDBACK

Daily
Averages
Monthly
Summary
United States of America

NAPERVILLE, ILLINOIS


Home > North America > United States > Illinois
Elevation: 687 feet     Latitude: 41 49N     Longitude: 088 04W

WEATHER
 
SELECT A DAY
Number of Records: 196,457;   Date Range: 1/1/95 - 7/20/14
 
SHARE

PRINT THIS DATA

[ ← Previous Day ]
WEATHER ALMANAC - JANUARY 25, 2013
[ Next Day → ]
[ °C ]   °F
Weather ElementAverageHighLow
Temperature22 °F28 °F (5:51 pm)17.6 °F (8:05 am)
Dewpoint14.1 °F18 °F (2:51 pm)4.1 °F (1:51 am)
Humidity72.8 %93 % (8:05 am)50 % (1:51 am)
Barometer30.11 in30.32 in (1:51 am)29.96 in (3:45 pm)
Wind Speed11.8 mph15 mph (12:51 pm)
Wind Gust17.3 mph (7:51 pm)
Weather ElementAverage
Visibility6.6 mi
Wind DirectionSW (222.6 °)

Weather ElementTotal
Precipitation---
Heating Degree Days42.2 (Base 65)
Averaged from 34 records on January 25, 2013
WEATHER CONDITIONS BREAKOUT
WIND DIRECTION BREAKOUT
WEATHER BY HOUR - JANUARY 25, 2013
[ °C ]   °F
Local TimeTemperatureDewpointHumidityBarometerVisibilityWind DirectionWind SpeedGust SpeedPrecipitationEventsConditions
1:51 AM19.9 °F4.1 °F50 %30.32 in10.0 miSSE (150°)11.5 mphOvercast
2:51 AM19.9 °F6.1 °F55 %30.28 in10.0 miSSE (160°)13.8 mphOvercast
3:51 AM19.9 °F7.0 °F57 %30.22 in10.0 miSSE (150°)13.8 mphOvercast
4:46 AM19.4 °F6.8 °F58 %30.17 in3.0 miSouth (170°)11.5 mphSnowLight Snow
4:51 AM19.9 °F7.0 °F57 %30.20 in2.0 miSouth (170°)11.5 mphSnowLight Snow
5:03 AM19.4 °F14.0 °F80 %30.16 in1.5 miSouth (180°)11.5 mphSnowLight Snow
5:29 AM19.4 °F14.0 °F80 %30.15 in1.2 miSouth (170°)8.1 mphSnowLight Snow
5:51 AM19.9 °F15.1 °F81 %30.18 in1.0 miSouth (180°)9.2 mphSnowLight Snow
6:20 AM19.4 °F15.8 °F86 %30.14 in1.0 miSouth (180°)6.9 mphSnowLight Snow
6:51 AM19.9 °F16.0 °F85 %30.16 in1.2 miSouth (180°)8.1 mphSnowLight Snow
7:06 AM19.4 °F15.8 °F86 %30.12 in1.8 miSouth (190°)10.4 mphSnowLight Snow
7:42 AM19.4 °F15.8 °F86 %30.12 in1.8 miSSW (200°)11.5 mphSnowLight Snow
7:51 AM19.0 °F15.1 °F85 %30.14 in1.8 miSSW (200°)12.7 mphSnowLight Snow
8:05 AM17.6 °F15.8 °F93 %30.10 in2.0 miSouth (190°)12.7 mphSnowLight Snow
8:24 AM17.6 °F15.8 °F93 %30.09 in4.0 miSouth (190°)12.7 mphSnowLight Snow
8:30 AM17.6 °F15.8 °F93 %30.09 in7.0 miSouth (190°)12.7 mphSnowLight Snow
8:51 AM18.0 °F15.1 °F88 %30.12 in8.0 miSouth (190°)12.7 mphSnowLight Snow
9:36 AM19.4 °F15.8 °F86 %30.08 in10.0 miSouth (190°)12.7 mphOvercast
9:51 AM21.0 °F15.1 °F78 %30.11 in10.0 miSSW (210°)12.7 mphOvercast
10:51 AM22.1 °F15.1 °F74 %30.09 in10.0 miSW (220°)12.7 mphOvercast
11:51 AM24.8 °F15.8 °F69 %30.02 in10.0 miSW (220°)11.5 mphOvercast
12:51 PM25.0 °F15.1 °F66 %30.00 in10.0 miWSW (240°)15.0 mphOvercast
1:51 PM25.0 °F17.1 °F72 %29.98 in10.0 miWSW (240°)13.8 mphOvercast
2:51 PM26.1 °F18.0 °F71 %30.00 in9.0 miWSW (240°)13.8 mphOvercast
3:45 PM26.6 °F17.6 °F69 %29.96 in9.0 miWSW (250°)13.8 mphOvercast
3:51 PM27.0 °F18.0 °F69 %29.99 in8.0 miWSW (250°)13.8 mphOvercast
4:51 PM27.0 °F18.0 °F69 %29.99 in7.0 miSW (230°)10.4 mphOvercast
5:51 PM28.0 °F18.0 °F66 %30.01 in8.0 miWest (270°)10.4 mphOvercast
6:51 PM28.0 °F18.0 °F66 %30.05 in9.0 miNW (320°)13.8 mphOvercast
7:51 PM26.1 °F15.1 °F63 %30.06 in9.0 miNW (310°)11.5 mph17.3 mphOvercast
8:51 PM25.0 °F14.0 °F63 %30.09 in10.0 miNW (320°)10.4 mphOvercast
9:51 PM25.0 °F14.0 °F63 %30.11 in9.0 miNNW (330°)10.4 mphOvercast
10:51 PM24.1 °F12.0 °F60 %30.14 in10.0 miNorth (350°)10.4 mphScattered Clouds
11:51 PM22.1 °F9.0 °F57 %30.18 in10.0 miNNW (340°)13.8 mphOvercast
Hourly data recorded from KORD, located miles away from Naperville, Illinois







STORIES FROM OUR PARTNERS